[Iaude] MPEC R236: 2023 RA11 [a=2.22,e=0.45,i=22.3,H=21.3]

mpec at marsden.cfa.harvard.edu mpec at marsden.cfa.harvard.edu
Fri Sep 15 18:47:16 EDT 2023


M.P.E.C. 2023-R236                           Issued 2023 September 15, 22:45 UT

     The Minor Planet Electronic Circulars contain information on unusual
         minor planets, routine data on comets and natural satellites,
         and occasional editorial announcements.  They are published
    on behalf of Division F of the International Astronomical Union by the
          Minor Planet Center, Smithsonian Astrophysical Observatory,
                          Cambridge, MA 02138, U.S.A.
			  
             Prepared using the Tamkin Foundation Computer Network

                              MPC at CFA.HARVARD.EDU
            URL https://www.minorplanetcenter.net/    ISSN 1523-6714

                                   2023 RA11                                    


Observations:
     K23R11A  C2023 08 18.56402700 27 19.041-19 49 48.50         23.09GVER236F51
     K23R11A  C2023 08 18.57528600 27 18.729-19 49 42.18         22.36GVER236F51
     K23R11A  C2023 08 18.59783900 27 18.052-19 49 28.57         22.47GVER236F51
     K23R11A  C2023 08 24.53269300 23 52.854-18 42 46.89         22.12GVER236F51
     K23R11A  C2023 08 24.54371300 23 52.305-18 42 38.55         22.51GVER236F51
     K23R11A  C2023 08 24.55471200 23 51.721-18 42 30.19         21.91GVER236F51
     K23R11A  C2023 08 24.56569900 23 51.159-18 42 21.77         22.58GVER236F51
     K23R11A* C2023 09 06.50863400 08 06.920-15 07 39.33         21.30wXER236F52
     K23R11A  C2023 09 06.51949000 08 05.767-15 07 25.29         21.35wXER236F52
     K23R11A  C2023 09 06.53036500 08 04.579-15 07 11.19         21.35wXER236F52
     K23R11A  C2023 09 10.40554200 01 02.302-13 37 41.78         20.95wXER236F52
     K23R11A  C2023 09 10.41699500 01 00.884-13 37 24.67         21.07wXER236F52
     K23R11A  C2023 09 10.42846200 00 59.460-13 37 07.84         21.01wXER236F52
     K23R11A  C2023 09 10.43995100 00 58.020-13 36 50.66         21.20wXER236F52
     K23R11A  C2023 09 14.43507323 52 37.042-11 49 33.45         20.91wXER236F51
     K23R11A  C2023 09 14.44677323 52 35.393-11 49 13.10         20.96wXER236F51
     K23R11A  C2023 09 14.45848423 52 33.743-11 48 52.81         20.96wXER236F51
     K23R11A  C2023 09 14.47019823 52 32.102-11 48 32.48         21.03wXER236F51

Observer details:
F51 Pan-STARRS 1, Haleakala.  Observers J. Bulger, K. Chambers, T. Lowe, P.
    Minguez, A. Schultz, I. Smith.  Measurers S. Chastel, J. Fairlamb, M.
    Huber, Y. Ramanjooloo, R. Wainscoat, R. Weryk, K. Chambers, T. de Boer, J.
    Bulger, H. Gao, C.-C. Lin, T. Lowe, E. Magnier, P. Minguez, A. Schultz, I.
    Smith.  1.8-m Ritchey-Chretien + CCD.
F52 Pan-STARRS 2, Haleakala.  Observers J. Bulger, T. Lowe, A. Schultz, I.
    Smith.  Measurers K. Chambers, S. Chastel, T. de Boer, J. Fairlamb, H.
    Gao, M. Huber, C.-C. Lin, E. Magnier, Y. Ramanjooloo, R. Wainscoat, R.
    Weryk.  1.8-m Ritchey-Chretien + CCD.

Orbital elements:
2023 RA11                                                Earth MOID = 0.3237 AU
Epoch 2023 Sept. 13.0 TT = JDT 2460200.5                Veres                   
M 336.07326              (2000.0)            P               Q                  
n   0.29735232     Peri.   53.05405     +0.60732815     -0.79444450             
a   2.2230804      Node   359.51255     +0.55259240     +0.42535808             
e   0.4503589      Incl.   22.34749     +0.57078381     +0.43350715             
P   3.31           H   21.37          G   0.15           U   7                  
Residuals in seconds of arc
230818 F51  0.0   0.4+    230824 F51  0.1+  0.0     230910 F52  0.2+  0.1-
230818 F51  0.2+  0.1-    230906 F52  0.2-  0.1-    230910 F52  0.1+  0.1-
230818 F51  0.2-  0.2-    230906 F52  0.0   0.1-    230914 F51  0.0   0.1-
230824 F51  0.1-  0.0     230906 F52  0.2-  0.0     230914 F51  0.0   0.0
230824 F51  0.2+  0.0     230910 F52  0.0   0.0     230914 F51  0.1-  0.0
230824 F51  0.0   0.0     230910 F52  0.1+  0.1+    230914 F51  0.1+  0.1+

Ephemeris:
2023 RA11                a,e,i = 2.22, 0.45, 22                  q = 1.2219
Date    TT    R. A. (2000) Decl.     Delta      r    Elong.  Phase     V
2023 08 16    00 28 08.0 -20 14 17   0.7086  1.6179   139.4    24.0    22.8
...
2023 08 31    00 17 30.9 -17 09 38   0.5622  1.5341   153.7    16.9    21.9
...
2023 09 08    00 05 32.1 -14 34 42   0.4987  1.4911   162.6    11.7    21.4
...
2023 09 14    23 53 34.5 -12 01 52   0.4593  1.4598   169.2     7.4    21.0
2023 09 15    23 51 21.4 -11 32 57   0.4535  1.4547   170.1     6.8    21.0
2023 09 16    23 49 04.7 -11 03 02   0.4479  1.4497   170.9     6.3    20.9
...
2023 09 22    23 34 21.8 -07 42 10   0.4193  1.4199   171.4     6.1    20.7
...
2023 09 30    23 13 07.4 -02 22 48   0.3947  1.3823   161.9    13.0    20.8
...
2023 10 15    22 36 12.6 +08 52 54   0.3892  1.3197   140.1    29.0    21.2

M. P. C. Staff               (C) Copyright 2023 MPC           M.P.E.C. 2023-R236





More information about the Iaude mailing list